"Timestamp","TZ","WindDir_Mean (deg)","WindSpd_Mean (km/h)","WindSpd_Min (km/h)","WindSpd_Max (km/h)","Temp_Mean (deg)","RH_Mean (%)","MSLP_Mean (hPa)","Rain_Acc (mm)","Rain_Intensity (mm/h)","Hail_Acc (hits/cm2)","Hail_Intensity (hits/cm2hr)","Solar_Mean (W/m2)"
2020/05/11 00:00:00.008,n,180,6.12,5.4,7.56,17.5,48.2,1020.02,0,0,0,0,0.026131
2020/05/11 00:01:00.000,n,176,1.8,1.08,2.16,17.5,48,1020.02,0,0,0,0,0.023537
2020/05/11 00:02:00.002,n,177,0.72,0.36,1.08,17.5,48.2,1020.02,0,0,0,0,0.027885
2020/05/11 00:03:00.000,n,205,0.72,0.36,1.8,17.5,48.1,1020.02,0,0,0,0,0.029602
2020/05/11 00:04:00.000,n,202,1.44,0.72,1.8,17.5,48.1,1020.02,0,0,0,0,0.030479
2020/05/11 00:05:00.007,n,242,0.72,0,1.08,17.5,48.2,1019.92,0,0,0,0,0.034828
2020/05/11 00:06:00.004,n,243,0.72,0.36,1.44,17.5,47.9,1019.92,0,0,0,0,0.032234
2020/05/11 00:07:00.002,n,186,1.08,1.08,1.44,17.4,47.7,1019.92,0,0,0,0,0.036583
2020/05/11 00:08:00.000,n,170,1.8,0.72,2.16,17.4,47.5,1019.92,0,0,0,0,0.029602
2020/05/11 00:09:00.014,n,152,5.76,5.4,6.48,17.4,47.4,1019.92,0,0,0,0,0.034828
2020/05/11 00:10:00.000,n,153,4.32,3.24,6.12,17.4,47.3,1019.92,0,0,0,0,0.03746
2020/05/11 00:11:00.000,n,186,4.68,4.32,5.04,17.4,47.6,1019.92,0,0,0,0,0.031357
2020/05/11 00:12:00.000,n,148,4.68,3.96,5.04,17.4,47.6,1019.92,0,0,0,0,0.030479
2020/05/11 00:13:00.002,n,160,6.84,6.48,7.56,17.4,47.4,1019.92,0,0,0,0,0.032234
2020/05/11 00:14:00.000,n,173,6.84,6.48,8.64,17.4,47.4,1019.92,0,0,0,0,0.036583
2020/05/11 00:15:00.000,n,123,3.24,1.8,5.4,17.4,47.6,1019.92,0,0,0,0,0.032234
2020/05/11 00:16:00.010,n,158,6.84,6.48,7.2,17.4,47.4,1019.92,0,0,0,0,0.031357
2020/05/11 00:17:00.007,n,183,5.76,5.04,6.48,17.4,47.5,1019.92,0,0,0,0,0.031357
2020/05/11 00:18:00.005,n,173,6.12,5.76,6.48,17.4,47.3,1019.92,0,0,0,0,0.028725
2020/05/11 00:19:00.000,n,156,8.28,6.84,9.72,17.4,47.5,1019.92,0,0,0,0,0.028725
2020/05/11 00:20:00.000,n,150,6.12,5.4,6.84,17.4,47.7,1019.92,0,0,0,0,0.022659
2020/05/11 00:21:00.000,n,144,6.84,6.48,7.56,17.3,48.1,1019.92,0,0,0,0,0.032234
2020/05/11 00:22:00.000,n,172,4.68,3.6,5.4,17.3,48.4,1020.02,0,0,0,0,0.027008
2020/05/11 00:23:00.008,n,157,6.84,5.76,8.64,17.3,48.4,1020.02,0,0,0,0,0.027885
2020/05/11 00:24:00.005,n,175,5.4,5.04,6.48,17.2,48.5,1020.02,0,0,0,0,0.024376
2020/05/11 00:25:00.003,n,162,4.68,4.32,5.4,17.2,48.4,1020.02,0,0,0,0,0.025253
2020/05/11 00:26:00.001,n,197,7.92,7.2,9.36,17.2,47.3,1020.02,0,0,0,0,0.028725
2020/05/11 00:27:00.014,n,166,7.56,7.2,8.28,17.2,47.4,1020.02,0,0,0,0,0.024376
2020/05/11 00:28:00.000,n,159,4.32,3.96,4.68,17.2,47.8,1020.02,0,0,0,0,0.031357
2020/05/11 00:29:00.000,n,233,1.44,0.36,2.16,17.2,47.6,1020.02,0,0,0,0,0.031357
2020/05/11 00:30:00.004,n,100,1.08,1.08,1.44,17.2,47.8,1020.12,0,0,0,0,0.036583
2020/05/11 00:31:00.001,n,238,5.76,4.32,7.2,17.2,47.4,1020.12,0,0,0,0,0.029602
2020/05/11 00:32:00.000,n,199,0.72,0.72,1.44,17.2,47.5,1020.12,0,0,0,0,0.031357
2020/05/11 00:33:00.000,n,278,3.6,2.52,4.32,17.2,47.3,1020.12,0,0,0,0,0.027847
2020/05/11 00:34:00.010,n,73,0.72,0.36,1.44,17.2,49.3,1020.22,0,0,0,0,0.027847
2020/05/11 00:35:00.008,n,325,0.36,0,1.08,17.2,47.8,1020.22,0,0,0,0,0.033073
2020/05/11 00:36:00.006,n,153,1.8,1.08,2.88,17.2,47.3,1020.22,0,0,0,0,0.031357
2020/05/11 00:37:00.000,n,130,2.52,1.8,2.88,17.2,47.1,1020.22,0,0,0,0,0.027847
2020/05/11 00:38:00.000,n,182,1.44,0.72,2.52,17.2,47.2,1020.32,0,0,0,0,0.027847
2020/05/11 00:39:00.000,n,165,5.04,3.96,5.4,17.2,47.5,1020.32,0,0,0,0,0.027008
2020/05/11 00:40:00.000,n,141,2.88,2.16,3.6,17.2,47.5,1020.22,0,0,0,0,0.027008
2020/05/11 00:41:00.009,n,275,1.44,1.44,1.8,17.2,47.8,1020.22,0,0,0,0,0.026131
2020/05/11 00:42:00.006,n,173,2.88,2.16,3.6,17.1,46.8,1020.22,0,0,0,0,0.025253
2020/05/11 00:43:00.003,n,197,1.8,0.36,2.52,17.1,47.3,1020.22,0,0,0,0,0.024376
2020/05/11 00:44:00.000,n,108,2.16,1.8,2.52,17.1,47.5,1020.22,0,0,0,0,0.027847
2020/05/11 00:45:00.014,n,158,4.68,3.96,5.4,17.1,47.1,1020.22,0,0,0,0,0.027008
2020/05/11 00:46:00.000,n,134,3.24,2.88,3.6,17.1,47.6,1020.22,0,0,0,0,0.028725
2020/05/11 00:47:00.000,n,111,2.16,1.44,2.88,17,48.2,1020.22,0,0,0,0,0.025253
2020/05/11 00:48:00.000,n,183,1.44,1.08,1.8,17,48.2,1020.22,0,0,0,0,0.023499
2020/05/11 00:49:00.003,n,153,3.6,3.24,4.32,17,47.3,1020.22,0,0,0,0,0.025253
2020/05/11 00:50:00.000,n,300,3.96,2.88,5.4,16.9,50.1,1020.12,0,0,0,0,0.025253
2020/05/11 00:51:00.000,n,235,2.16,2.16,2.52,17,48.3,1020.12,0,0,0,0,0.020027
2020/05/11 00:52:00.010,n,282,3.6,1.44,5.04,16.9,47.6,1020.22,0,0,0,0,0.028725
2020/05/11 00:53:00.008,n,160,3.6,2.88,4.32,16.9,47.4,1020.22,0,0,0,0,0.024376
2020/05/11 00:54:00.005,n,176,4.68,3.96,6.48,16.9,47.1,1020.22,0,0,0,0,0.022659
2020/05/11 00:55:00.000,n,179,6.12,5.76,7.2,16.9,47,1020.22,0,0,0,0,0.021782
2020/05/11 00:56:00.000,n,160,2.88,2.52,3.96,16.9,47.2,1020.22,0,0,0,0,0.028725
2020/05/11 00:57:00.000,n,330,0.72,0.36,0.72,17,47.2,1020.12,0,0,0,0,0.022659
2020/05/11 00:58:00.000,n,167,2.16,1.44,2.88,17,46.8,1020.12,0,0,0,0,0.024376
2020/05/11 00:59:00.008,n,140,6.12,5.76,6.48,17,46.8,1020.12,0,0,0,0,0.025253
2020/05/11 01:00:00.006,n,152,5.76,5.4,6.12,17,46.8,1020.12,0,0,0,0,0.023499
2020/05/11 01:01:00.005,n,170,5.04,3.96,5.76,16.9,46.7,1020.12,0,0,0,0,0.023499
2020/05/11 01:02:00.002,n,144,3.6,2.88,5.4,16.9,46.7,1020.12,0,0,0,0,0.023499
2020/05/11 01:03:00.015,n,152,4.32,3.6,5.4,16.9,46.7,1020.12,0,0,0,0,0.023499
2020/05/11 01:04:00.000,n,157,3.24,2.52,3.6,16.9,46.8,1020.12,0,0,0,0,0.020027
2020/05/11 01:05:00.000,n,150,5.4,4.32,6.12,16.9,46.8,1020.12,0,0,0,0,0.023499
2020/05/11 01:06:00.000,n,130,5.04,3.96,5.76,16.9,46.8,1020.22,0,0,0,0,0.022659
2020/05/11 01:07:00.005,n,163,2.16,1.8,2.52,16.9,47,1020.22,0,0,0,0,0.027008
2020/05/11 01:08:00.000,n,133,2.52,1.08,4.32,16.9,47,1020.22,0,0,0,0,0.033112
2020/05/11 01:09:00.000,n,141,3.6,0.72,5.4,16.8,47,1020.22,0,0,0,0,0.032234
2020/05/11 01:10:00.010,n,144,3.96,2.88,5.04,16.8,47.2,1020.22,0,0,0,0,0.032234
2020/05/11 01:11:00.008,n,168,1.8,1.44,1.8,16.8,47.2,1020.22,0,0,0,0,0.032234
2020/05/11 01:12:00.005,n,181,5.04,4.68,5.4,16.8,46.7,1020.22,0,0,0,0,0.02964
2020/05/11 01:13:00.000,n,166,3.96,3.6,4.68,16.9,46.7,1020.12,0,0,0,0,0.02964
2020/05/11 01:14:00.000,n,164,8.28,7.92,9,16.9,46.4,1020.12,0,0,0,0,0.028763
2020/05/11 01:15:00.000,n,164,6.12,5.04,6.48,16.9,46.8,1020.12,0,0,0,0,0.027008
2020/05/11 01:16:00.000,n,169,6.48,6.48,6.84,16.9,46.6,1020.12,0,0,0,0,0.027885
2020/05/11 01:17:00.000,n,163,5.04,4.68,5.4,16.9,46.7,1020.02,0,0,0,0,0.02964
2020/05/11 01:18:00.005,n,160,3.24,0.72,4.68,16.9,46.7,1020.02,0,0,0,0,0.033989
2020/05/11 01:19:00.002,n,134,1.08,1.08,1.8,16.9,47,1020.02,0,0,0,0,0.031357
2020/05/11 01:20:00.000,n,149,4.32,3.96,4.68,16.9,46.9,1020.02,0,0,0,0,0.034866
2020/05/11 01:21:00.013,n,196,6.12,5.76,6.48,16.9,46.9,1020.02,0,0,0,0,0.033989
2020/05/11 01:22:00.000,n,179,7.92,7.56,8.64,16.9,46.8,1020.02,0,0,0,0,0.031357
2020/05/11 01:23:00.000,n,187,5.4,4.68,6.84,16.9,47.1,1019.92,0,0,0,0,0.034866
2020/05/11 01:24:00.004,n,164,5.76,4.68,6.48,16.9,46.6,1019.92,0,0,0,0,0.034866
2020/05/11 01:25:00.001,n,182,4.32,3.96,5.04,16.9,47.2,1019.92,0,0,0,0,0.030479
2020/05/11 01:26:00.000,n,181,1.8,1.44,2.16,16.9,47.3,1019.92,0,0,0,0,0.032234
2020/05/11 01:27:00.000,n,103,1.8,0.72,3.24,16.9,47.3,1019.92,0,0,0,0,0.031357
2020/05/11 01:28:00.009,n,118,0.72,0,1.44,16.9,47.2,1019.92,0,0,0,0,0.02964
2020/05/11 01:29:00.006,n,270,3.24,2.16,3.6,16.9,47.2,1019.92,0,0,0,0,0.032234
2020/05/11 01:30:00.003,n,160,1.08,1.08,1.44,16.8,47.4,1019.92,0,0,0,0,0.027008
2020/05/11 01:31:00.001,n,161,4.32,3.96,5.04,16.8,47.4,1019.92,0,0,0,0,0.025291
2020/05/11 01:32:00.000,n,162,4.32,3.6,5.04,16.8,47.4,1020.02,0,0,0,0,0.033112
2020/05/11 01:33:00.000,n,223,2.16,0.72,2.88,16.8,47.4,1020.02,0,0,0,0,0.034866
2020/05/11 01:34:00.000,n,292,1.08,0.72,1.8,16.8,47.4,1020.02,0,0,0,0,0.028763
2020/05/11 01:35:00.006,n,274,1.8,1.44,2.16,16.8,47.8,1020.02,0,0,0,0,0.02964
2020/05/11 01:36:00.003,n,226,4.68,4.68,5.04,16.8,47.4,1020.02,0,0,0,0,0.028763
2020/05/11 01:37:00.000,n,280,1.44,0.72,2.16,16.8,47.2,1020.02,0,0,0,0,0.033989
2020/05/11 01:38:00.013,n,55,0.36,0,0.72,16.8,47.5,1020.02,0,0,0,0,0.033112
2020/05/11 01:39:00.010,n,276,2.88,1.08,3.96,16.8,47.8,1020.02,0,0,0,0,0.031357
2020/05/11 01:40:00.000,n,293,0.72,0.36,1.08,16.700002,51,1020.02,0,0,0,0,0.033112
2020/05/11 01:41:00.000,n,263,3.24,2.52,3.6,16.700002,48.5,1020.02,0,0,0,0,0.033112
2020/05/11 01:42:00.000,n,70,2.88,2.16,3.24,16.8,48.1,1019.92,0,0,0,0,0.033989
2020/05/11 01:43:00.000,n,137,2.16,1.44,2.52,16.8,47.9,1019.92,0,0,0,0,0.033989
2020/05/11 01:44:00.000,n,207,2.16,1.8,2.52,16.8,47.7,1019.92,0,0,0,0,0.030479
2020/05/11 01:45:00.008,n,309,1.44,1.08,1.8,16.700002,48.1,1019.92,0,0,0,0,0.033112
2020/05/11 01:46:00.005,n,233,0.36,0.36,0.72,16.700002,47.9,1019.92,0,0,0,0,0.030479
2020/05/11 01:47:00.002,n,145,2.88,2.52,2.88,16.700002,47.5,1020.02,0,0,0,0,0.031357
2020/05/11 01:48:00.015,n,110,1.8,1.44,1.8,16.700002,47.3,1019.92,0,0,0,0,0.033989
2020/05/11 01:49:00.000,n,207,0.72,0.72,1.08,16.700002,47.3,1019.92,0,0,0,0,0.02964
2020/05/11 01:50:00.000,n,189,1.08,0.72,1.44,16.700002,47.7,1019.92,0,0,0,0,0.027008
2020/05/11 01:51:00.000,n,249,2.52,2.16,3.6,16.700002,47.4,1019.92,0,0,0,0,0.028763
2020/05/11 01:52:00.004,n,248,2.16,1.8,2.16,16.6,47.3,1019.92,0,0,0,0,0.027885
2020/05/11 01:53:00.001,n,285,0.72,0.36,1.08,16.6,47.8,1019.92,0,0,0,0,0.028763
2020/05/11 01:54:00.000,n,281,1.44,0.36,1.8,16.6,48.1,1019.92,0,0,0,0,0.025291
2020/05/11 01:55:00.012,n,219,0.36,0.36,0.72,16.6,47.9,1019.92,0,0,0,0,0.030479
2020/05/11 01:56:00.012,n,208,3.96,3.24,4.68,16.5,47.6,1019.92,0,0,0,0,0.023499
2020/05/11 01:57:00.008,n,295,1.08,0.72,1.8,16.5,47.9,1019.92,0,0,0,0,0.025291
2020/05/11 01:58:00.000,n,256,3.96,3.24,4.32,16.5,47.8,1019.82,0,0,0,0,0.025291
2020/05/11 01:59:00.001,n,306,3.96,3.24,4.68,16.5,48.1,1019.82,0,0,0,0,0.028763
2020/05/11 02:00:00.000,n,279,3.24,2.16,5.04,16.5,48.1,1019.82,0,0,0,0,0.028763
2020/05/11 02:01:00.000,n,240,0.72,0.36,1.44,16.5,47.9,1019.82,0,0,0,0,0.025291
2020/05/11 02:02:00.000,n,260,2.16,1.8,2.16,16.5,48,1019.82,0,0,0,0,0.026131
2020/05/11 02:03:00.005,n,278,2.88,2.16,3.24,16.5,47.8,1019.82,0,0,0,0,0.025291
2020/05/11 02:04:00.003,n,318,1.44,1.08,1.8,16.4,48,1019.82,0,0,0,0,0.020905
2020/05/11 02:05:00.000,n,210,0.72,0.72,1.08,16.4,48,1019.82,0,0,0,0,0.026131
2020/05/11 02:06:00.012,n,273,3.24,2.88,3.24,16.4,48.6,1019.82,0,0,0,0,0.027008
2020/05/11 02:07:00.000,n,113,1.08,0.72,1.44,16.4,48.8,1019.82,0,0,0,0,0.024414
2020/05/11 02:08:00.000,n,252,1.08,0.36,2.16,16.3,48.5,1019.82,0,0,0,0,0.026131
2020/05/11 02:09:00.004,n,76,1.44,0.72,2.16,16.3,48.8,1019.82,0,0,0,0,0.032234
2020/05/11 02:10:00.001,n,214,1.44,0.72,1.8,16.3,48.1,1019.92,0,0,0,0,0.022659
2020/05/11 02:11:00.000,n,104,2.88,2.52,3.6,16.3,47.9,1019.92,0,0,0,0,0.030479
2020/05/11 02:12:00.000,n,186,0.36,0.36,0.72,16.3,49.2,1019.92,0,0,0,0,0.025291
2020/05/11 02:13:00.008,n,180,1.44,0.36,2.52,16.3,47.9,1019.92,0,0,0,0,0.022659
2020/05/11 02:14:00.005,n,172,2.16,0.72,3.6,16.3,47.7,1019.92,0,0,0,0,0.025291
2020/05/11 02:15:00.002,n,257,1.44,1.44,2.16,16.3,48,1019.92,0,0,0,0,0.020905
2020/05/11 02:16:00.000,n,309,2.16,1.8,2.52,16.200002,48.3,1019.92,0,0,0,0,0.024414
2020/05/11 02:17:00.000,n,22,0.36,0,0.36,16.200002,48.4,1019.92,0,0,0,0,0.023499
2020/05/11 02:18:00.000,n,165,1.44,0.72,2.88,16.200002,48.3,1019.92,0,0,0,0,0.027008
2020/05/11 02:19:00.003,n,232,2.52,1.8,3.96,16.200002,48.5,1019.92,0,0,0,0,0.028763
2020/05/11 02:20:00.001,n,150,0.36,0.36,0.72,16.200002,48.9,1020.02,0,0,0,0,0.033951
2020/05/11 02:21:00.000,n,165,1.8,1.44,2.52,16.200002,49.3,1020.02,0,0,0,0,0.029602
2020/05/11 02:22:00.011,n,161,3.24,1.44,4.68,16.200002,48.9,1020.02,0,0,0,0,0.022659
2020/05/11 02:23:00.008,n,176,2.88,2.16,3.24,16.200002,49,1020.12,0,0,0,0,0.034828
2020/05/11 02:24:00.005,n,142,2.16,1.44,2.52,16.1,49.1,1020.12,0,0,0,0,0.034828
2020/05/11 02:25:00.000,n,151,2.16,1.8,2.52,16.1,49.1,1020.12,0,0,0,0,0.028763
2020/05/11 02:26:00.000,n,265,0.36,0,0.72,16.1,49.5,1020.12,0,0,0,0,0.023537
2020/05/11 02:27:00.000,n,214,1.08,0.72,1.08,16.1,49.5,1020.12,0,0,0,0,0.028763
2020/05/11 02:28:00.000,n,333,1.08,0.72,1.44,16,49.8,1020.02,0,0,0,0,0.025253
2020/05/11 02:29:00.006,n,112,1.08,0.72,1.08,16,51.4,1020.02,0,0,0,0,0.025253
2020/05/11 02:30:00.004,n,196,2.16,1.44,2.52,16,49.9,1020.02,0,0,0,0,0.027008
2020/05/11 02:31:00.000,n,233,1.44,1.08,2.16,16,49.7,1020.02,0,0,0,0,0.022659
2020/05/11 02:32:00.014,n,193,1.8,0.72,2.52,16,49.9,1020.02,0,0,0,0,0.024376
2020/05/11 02:33:00.013,n,349,1.8,1.44,2.16,16,50.9,1020.02,0,0,0,0,0.022659
2020/05/11 02:34:00.000,n,233,2.16,1.8,2.16,16,49.7,1020.02,0,0,0,0,0.032234
2020/05/11 02:35:00.000,n,284,2.52,2.16,3.24,16,49.5,1020.02,0,0,0,0,0.027008
2020/05/11 02:36:00.003,n,266,3.6,3.24,3.96,16,49.2,1020.02,0,0,0,0,0.025253
2020/05/11 02:37:00.000,n,300,2.52,2.16,3.24,16,49.3,1020.02,0,0,0,0,0.025253
2020/05/11 02:38:00.000,n,231,2.88,2.52,3.24,16,49.4,1020.02,0,0,0,0,0.026131
2020/05/11 02:39:00.011,n,280,2.16,1.8,2.16,15.9,49.6,1020.02,0,0,0,0,0.031357
2020/05/11 02:40:00.008,n,295,2.52,1.8,3.96,15.9,49.7,1020.02,0,0,0,0,0.025253
2020/05/11 02:41:00.005,n,237,2.88,1.44,3.6,15.9,49.9,1020.02,0,0,0,0,0.028763
2020/05/11 02:42:00.002,n,272,4.32,2.88,5.4,15.9,50.3,1020.02,0,0,0,0,0.026131
2020/05/11 02:43:00.000,n,331,1.08,1.08,1.44,15.9,50.6,1020.02,0,0,0,0,0.027008
2020/05/11 02:44:00.000,n,242,1.44,0.72,1.44,15.9,50.5,1020.02,0,0,0,0,0.026131
2020/05/11 02:45:00.000,n,149,1.8,1.44,2.16,15.9,50.6,1020.02,0,0,0,0,0.027885
2020/05/11 02:46:00.000,n,207,1.44,0.36,2.16,15.9,51,1020.02,0,0,0,0,0.024376
2020/05/11 02:47:00.005,n,212,1.08,1.08,1.08,15.9,51,1020.02,0,0,0,0,0.028763
2020/05/11 02:48:00.001,n,245,0.72,0.36,1.44,15.9,51.1,1020.02,0,0,0,0,0.019188
2020/05/11 02:49:00.000,n,57,1.44,0.72,1.8,15.8,51.1,1020.02,0,0,0,0,0.024376
2020/05/11 02:50:00.012,n,290,1.8,1.08,2.16,15.8,51.8,1020.02,0,0,0,0,0.023537
2020/05/11 02:51:00.009,n,342,3.24,2.88,3.96,15.8,51.1,1020.02,0,0,0,0,0.019188
2020/05/11 02:52:00.000,n,137,3.96,3.6,4.32,15.8,51.3,1020.02,0,0,0,0,0.022659
2020/05/11 02:53:00.000,n,191,2.52,2.16,2.88,15.8,51.9,1020.02,0,0,0,0,0.020905
2020/05/11 02:54:00.000,n,200,1.44,0.72,2.16,15.8,51.5,1020.02,0,0,0,0,0.021782
2020/05/11 02:55:00.000,n,261,1.8,1.08,2.16,15.8,51.4,1020.02,0,0,0,0,0.020027
2020/05/11 02:56:00.000,n,151,2.16,0.36,3.6,15.8,51.3,1020.02,0,0,0,0,0.020905
2020/05/11 02:57:00.008,n,201,2.52,1.8,3.24,15.8,51.4,1020.02,0,0,0,0,0.021782
2020/05/11 02:58:00.005,n,352,1.8,0.72,2.52,15.8,51.4,1020.02,0,0,0,0,0.016556
2020/05/11 02:59:00.002,n,242,0.36,0,0.72,15.8,51.4,1020.12,0,0,0,0,0.019188
2020/05/11 03:00:00.000,n,258,2.52,1.8,3.24,15.8,51.3,1020.12,0,0,0,0,0.030479
2020/05/11 03:01:00.000,n,311,1.08,0.36,1.8,15.7,51.6,1020.12,0,0,0,0,0.033073
2020/05/11 03:02:00.000,n,191,0.72,0.36,1.08,15.7,51.3,1020.12,0,0,0,0,0.026093
2020/05/11 03:03:00.000,n,333,1.8,1.08,2.52,15.7,51.3,1020.12,0,0,0,0,0.029602
2020/05/11 03:04:00.003,n,94,0.72,0,1.08,15.7,51.6,1020.12,0,0,0,0,0.036583
2020/05/11 03:05:00.001,n,261,3.96,3.24,4.32,15.7,51.8,1020.22,0,0,0,0,0.031357
2020/05/11 03:06:00.000,n,185,0.36,0.36,0.36,15.7,51.6,1020.22,0,0,0,0,0.030479
2020/05/11 03:07:00.010,n,295,1.8,1.08,2.16,15.6,52,1020.22,0,0,0,0,0.032234
2020/05/11 03:08:00.007,n,244,2.88,2.52,3.24,15.6,51.8,1020.22,0,0,0,0,0.030479
2020/05/11 03:09:00.004,n,74,1.08,0.72,1.44,15.6,52.2,1020.22,0,0,0,0,0.031357
2020/05/11 03:10:00.002,n,35,2.52,1.8,3.24,15.6,50.9,1020.12,0,0,0,0,0.031357
2020/05/11 03:11:00.000,n,263,2.88,1.8,4.68,15.6,52.3,1020.12,0,0,0,0,0.029602
2020/05/11 03:12:00.000,n,259,2.52,1.08,2.88,15.6,52.1,1020.12,0,0,0,0,0.033073
2020/05/11 03:13:00.000,n,295,2.88,2.52,3.6,15.7,53.1,1020.12,0,0,0,0,0.032234
2020/05/11 03:14:00.006,n,319,0.72,0.36,0.72,15.6,51.6,1020.12,0,0,0,0,0.031357
2020/05/11 03:15:00.004,n,276,3.6,3.6,4.32,15.6,51.3,1020.12,0,0,0,0,0.032234
2020/05/11 03:16:00.000,n,273,2.16,1.44,3.24,15.6,51,1020.12,0,0,0,0,0.033073
2020/05/11 03:17:00.013,n,239,5.04,4.32,5.4,15.6,50.7,1020.12,0,0,0,0,0.033951
2020/05/11 03:18:00.011,n,312,0.36,0,0.36,15.6,51.3,1020.22,0,0,0,0,0.030479
2020/05/11 03:19:00.000,n,101,1.08,0.72,1.08,15.6,51.3,1020.22,0,0,0,0,0.026093
2020/05/11 03:20:00.000,n,110,2.52,1.8,2.52,15.6,51.9,1020.22,0,0,0,0,0.027885
2020/05/11 03:21:00.001,n,265,1.8,1.08,2.16,15.6,51.3,1020.22,0,0,0,0,0.025253
2020/05/11 03:22:00.000,n,283,2.16,1.8,3.24,15.6,51.5,1020.22,0,0,0,0,0.024376
2020/05/11 03:23:00.000,n,132,1.08,0.72,2.16,15.6,51.4,1020.22,0,0,0,0,0.027885
2020/05/11 03:24:00.008,n,244,1.08,1.08,1.08,15.6,52.4,1020.22,0,0,0,0,0.026093
2020/05/11 03:25:00.005,n,244,2.52,1.08,3.6,15.5,51.9,1020.32,0,0,0,0,0.024376
2020/05/11 03:26:00.003,n,25,1.8,1.44,2.52,15.5,53,1020.32,0,0,0,0,0.024376
2020/05/11 03:27:00.000,n,274,2.52,2.16,2.88,15.5,52.2,1020.32,0,0,0,0,0.027008
2020/05/11 03:28:00.000,n,236,3.24,2.52,3.96,15.5,51.9,1020.32,0,0,0,0,0.026093
2020/05/11 03:29:00.000,n,296,2.52,1.8,3.24,15.5,52.1,1020.32,0,0,0,0,0.027885
2020/05/11 03:30:00.000,n,250,4.32,3.6,4.68,15.5,51.6,1020.32,0,0,0,0,0.027885
2020/05/11 03:31:00.005,n,278,2.88,2.16,3.6,15.4,51.5,1020.32,0,0,0,0,0.021744
2020/05/11 03:32:00.002,n,282,3.6,2.88,4.68,15.4,51.4,1020.32,0,0,0,0,0.025253
2020/05/11 03:33:00.000,n,274,5.04,3.96,6.12,15.4,51.3,1020.32,0,0,0,0,0.026093
2020/05/11 03:34:00.011,n,232,2.88,2.52,2.88,15.4,51.3,1020.32,0,0,0,0,0.027885
2020/05/11 03:35:00.008,n,302,0.72,0.36,1.44,15.4,51.1,1020.32,0,0,0,0,0.028725
2020/05/11 03:36:00.005,n,319,2.52,2.16,2.52,15.4,51.4,1020.22,0,0,0,0,0.026093
2020/05/11 03:37:00.002,n,357,3.96,2.16,5.4,15.4,53,1020.22,0,0,0,0,0.027008
2020/05/11 03:38:00.000,n,264,1.44,0.72,2.88,15.4,51.5,1020.22,0,0,0,0,0.023499
2020/05/11 03:39:00.000,n,280,3.6,3.24,3.6,15.4,51.5,1020.22,0,0,0,0,0.025253
2020/05/11 03:40:00.000,n,356,1.44,0.72,2.16,15.3,51.7,1020.22,0,0,0,0,0.024376
2020/05/11 03:41:00.006,n,266,3.24,2.88,3.96,15.3,51.6,1020.22,0,0,0,0,0.022659
2020/05/11 03:42:00.004,n,267,3.6,3.24,4.32,15.3,51.7,1020.22,0,0,0,0,0.024376
2020/05/11 03:43:00.000,n,265,2.52,2.16,2.88,15.3,51.9,1020.22,0,0,0,0,0.026093
2020/05/11 03:44:00.014,n,221,1.44,0.72,1.8,15.3,52.3,1020.22,0,0,0,0,0.025253
2020/05/11 03:45:00.011,n,226,2.88,2.52,3.24,15.3,52,1020.22,0,0,0,0,0.021744
2020/05/11 03:46:00.000,n,218,2.16,1.8,2.16,15.2,52.1,1020.22,0,0,0,0,0.021744
2020/05/11 03:47:00.000,n,206,1.08,0.72,1.44,15.2,52.2,1020.22,0,0,0,0,0.025253
2020/05/11 03:48:00.002,n,243,0.72,0.72,0.72,15.2,52.2,1020.22,0,0,0,0,0.020905
2020/05/11 03:49:00.000,n,271,2.52,1.8,3.24,15.2,52.4,1020.22,0,0,0,0,0.030479
2020/05/11 03:50:00.000,n,239,1.08,0.72,2.16,15.2,52.6,1020.22,0,0,0,0,0.033073
2020/05/11 03:51:00.007,n,235,1.8,1.08,3.24,15.2,52.5,1020.32,0,0,0,0,0.031357
2020/05/11 03:52:00.004,n,275,3.96,2.88,4.68,15.2,52.6,1020.32,0,0,0,0,0.027008
2020/05/11 03:53:00.002,n,273,3.96,3.96,4.68,15.1,52.6,1020.32,0,0,0,0,0.027008
2020/05/11 03:54:00.014,n,277,3.24,2.88,3.6,15.1,52.7,1020.32,0,0,0,0,0.029602
2020/05/11 03:55:00.000,n,270,4.32,3.96,5.04,15.1,52.8,1020.32,0,0,0,0,0.027885
2020/05/11 03:56:00.000,n,254,6.48,5.76,6.84,15.1,52.7,1020.32,0,0,0,0,0.027008
2020/05/11 03:57:00.000,n,240,5.76,4.32,7.2,15.1,52.7,1020.32,0,0,0,0,0.027008
2020/05/11 03:58:00.002,n,272,5.76,5.04,6.48,15.1,52.8,1020.42,0,0,0,0,0.027008
2020/05/11 03:59:00.000,n,242,5.04,4.32,5.76,15.1,52.8,1020.42,0,0,0,0,0.029602
2020/05/11 04:00:00.000,n,263,2.52,1.8,3.6,15.1,52.8,1020.42,0,0,0,0,0.024376
2020/05/11 04:01:00.010,n,274,3.96,3.24,3.96,15.1,52.9,1020.42,0,0,0,0,0.025253
2020/05/11 04:02:00.007,n,22,0.72,0.36,1.08,15.1,53.2,1020.42,0,0,0,0,0.025253
2020/05/11 04:03:00.005,n,272,3.96,3.24,5.04,15.1,53,1020.42,0,0,0,0,0.023537
2020/05/11 04:04:00.000,n,171,1.8,1.44,2.16,15,53.1,1020.42,0,0,0,0,0.023537
2020/05/11 04:05:00.000,n,294,0.72,0.36,1.08,15,53.3,1020.42,0,0,0,0,0.024376
2020/05/11 04:06:00.000,n,266,5.04,4.32,5.76,15,52.9,1020.42,0,0,0,0,0.022659
2020/05/11 04:07:00.000,n,276,3.6,3.24,4.32,15,53.7,1020.42,0,0,0,0,0.025253
2020/05/11 04:08:00.006,n,268,2.88,1.8,3.96,15,53,1020.42,0,0,0,0,0.021744
2020/05/11 04:09:00.003,n,254,5.76,3.96,6.84,15,53,1020.42,0,0,0,0,0.021744
2020/05/11 04:10:00.000,n,254,5.76,5.4,6.48,15,53.2,1020.42,0,0,0,0,0.020905
2020/05/11 04:11:00.013,n,260,1.44,0.72,1.8,15,53.2,1020.42,0,0,0,0,0.023537
2020/05/11 04:12:00.010,n,261,3.24,2.88,3.6,15,53.3,1020.42,0,0,0,0,0.021744
2020/05/11 04:13:00.000,n,285,3.96,3.24,5.04,15,53.4,1020.52,0,0,0,0,0.022659
2020/05/11 04:14:00.000,n,293,2.16,0.72,3.24,15,53.5,1020.52,0,0,0,0,0.020905
2020/05/11 04:15:00.002,n,252,3.24,2.52,4.32,15,54,1020.52,0,0,0,0,0.01915
2020/05/11 04:16:00.000,n,307,4.32,3.6,5.04,15,54.7,1020.52,0,0,0,0,0.020905
2020/05/11 04:17:00.000,n,252,5.04,2.52,6.12,15,54.2,1020.52,0,0,0,0,0.020027
2020/05/11 04:18:00.008,n,309,1.8,1.44,2.16,15,54.1,1020.52,0,0,0,0,0.020027
2020/05/11 04:19:00.005,n,245,1.08,0.72,1.08,15,54,1020.52,0,0,0,0,0.021744
2020/05/11 04:20:00.002,n,276,2.52,2.16,2.88,15,54.2,1020.52,0,0,0,0,0.024376
2020/05/11 04:21:00.015,n,243,4.68,4.32,5.04,15,54.1,1020.52,0,0,0,0,0.016556
2020/05/11 04:22:00.000,n,261,5.76,5.04,7.2,15,54.3,1020.52,0,0,0,0,0.02697
2020/05/11 04:23:00.000,n,269,7.2,6.48,7.92,15,54.4,1020.52,0,0,0,0,0.033073
2020/05/11 04:24:00.002,n,36,0.36,0.36,1.08,15,54.4,1020.52,0,0,0,0,0.032196
2020/05/11 04:25:00.000,n,170,0.72,0.36,1.08,15,54.6,1020.52,0,0,0,0,0.033951
2020/05/11 04:26:00.000,n,274,3.24,2.88,3.6,15,54.9,1020.52,0,0,0,0,0.033951
2020/05/11 04:27:00.008,n,313,2.88,1.08,3.6,15,55.3,1020.52,0,0,0,0,0.029602
2020/05/11 04:28:00.006,n,41,2.88,1.08,4.32,15,55.9,1020.52,0,0,0,0,0.036545
2020/05/11 04:29:00.002,n,181,1.8,0.72,2.52,15,55.2,1020.62,0,0,0,0,0.032196
2020/05/11 04:30:00.016,n,233,4.32,3.6,5.04,15,55,1020.62,0,0,0,0,0.033951
2020/05/11 04:31:00.000,n,214,2.88,2.16,3.6,15,55,1020.62,0,0,0,0,0.032196
2020/05/11 04:32:00.000,n,291,2.88,2.52,3.24,15,55.5,1020.62,0,0,0,0,0.029602
2020/05/11 04:33:00.000,n,97,0.72,0,1.44,15,55.2,1020.62,0,0,0,0,0.026131
2020/05/11 04:34:00.005,n,257,2.88,2.52,3.24,15,55.2,1020.72,0,0,0,0,0.028725
2020/05/11 04:35:00.003,n,273,4.32,3.96,4.68,15,55.1,1020.72,0,0,0,0,0.028725
2020/05/11 04:36:00.000,n,131,4.68,3.96,5.4,14.9,55.4,1020.72,0,0,0,0,0.027847
2020/05/11 04:37:00.000,n,140,0.36,0.36,1.08,14.9,55.3,1020.72,0,0,0,0,0.027847
2020/05/11 04:38:00.009,n,280,3.24,2.88,3.6,14.9,55.3,1020.72,0,0,0,0,0.025253
2020/05/11 04:39:00.006,n,260,2.16,1.44,2.88,14.9,55.4,1020.82,0,0,0,0,0.029602
2020/05/11 04:40:00.000,n,310,3.24,2.16,3.96,14.9,55.5,1020.82,0,0,0,0,0.029602
2020/05/11 04:41:00.000,n,269,7.2,6.84,7.56,14.9,55.6,1020.82,0,0,0,0,0.02697
2020/05/11 04:42:00.000,n,292,3.24,2.52,3.96,14.9,56.8,1020.82,0,0,0,0,0.024338
2020/05/11 04:43:00.000,n,263,6.48,6.12,6.84,14.9,55.4,1020.82,0,0,0,0,0.031319
2020/05/11 04:44:00.007,n,254,5.4,4.32,6.48,14.9,55.3,1020.82,0,0,0,0,0.029602
2020/05/11 04:45:00.004,n,253,5.76,4.68,6.12,14.9,55.3,1020.92,0,0,0,0,0.029602
2020/05/11 04:46:00.000,n,242,6.48,5.76,6.48,14.9,55.4,1020.92,0,0,0,0,0.025253
2020/05/11 04:47:00.013,n,273,5.04,4.68,5.4,14.9,55.3,1020.92,0,0,0,0,0.025253
2020/05/11 04:48:00.010,n,282,4.32,3.6,4.68,14.9,55.3,1020.92,0,0,0,0,0.028725
2020/05/11 04:49:00.000,n,246,5.76,4.32,6.48,14.9,55.3,1020.92,0,0,0,0,0.031319
2020/05/11 04:50:00.000,n,265,1.8,1.44,2.52,14.9,55.6,1020.92,0,0,0,0,0.031319
2020/05/11 04:51:00.000,n,272,3.6,2.88,3.6,14.9,55.6,1020.92,0,0,0,0,0.028725
2020/05/11 04:52:00.000,n,277,4.32,4.32,5.4,14.9,55.6,1020.92,0,0,0,0,0.028725
2020/05/11 04:53:00.000,n,277,3.6,2.88,3.96,14.9,56,1020.92,0,0,0,0,0.028725
2020/05/11 04:54:00.008,n,247,10.8,10.08,11.16,14.9,56,1020.92,0,0,0,0,0.027847
2020/05/11 04:55:00.004,n,317,1.44,0.72,1.8,15,56.1,1020.92,0,0,0,0,0.024338